ICT,Max TemperatureF,Mean TemperatureF,Min TemperatureF,Max Dew PointF,MeanDew PointF,Min DewpointF,Max Humidity, Mean Humidity, Min Humidity, Max Sea Level PressureIn, Mean Sea Level PressureIn, Min Sea Level PressureIn, Max VisibilityMiles, Mean VisibilityMiles, Min VisibilityMiles, Max Wind SpeedMPH, Mean Wind SpeedMPH, Max Gust SpeedMPH,PrecipitationIn, CloudCover, Events, WindDirDegrees
2012-11-1,87,78,69,63,58,54,78,49,31,30.01,29.93,29.86,6,4,2,9,3,,0.00,6,,42
2012-11-2,87,78,68,66,63,59,88,56,38,29.98,29.89,29.80,5,4,2,6,2,,0.00,4,,9
2012-11-3,91,80,68,68,64,61,94,57,36,29.92,29.86,29.80,6,4,2,5,2,,0.00,1,,50
2012-11-4,93,82,71,70,65,61,94,54,34,29.95,29.86,29.80,6,5,2,7,3,,0.00,2,,76
2012-11-5,91,82,73,70,65,63,88,51,38,29.92,29.85,29.80,6,6,5,7,3,,0.00,3,,72
2012-11-6,93,83,73,70,66,63,83,54,36,29.98,29.88,29.80,6,6,4,7,2,,0.00,3,,45
2012-11-7,93,83,73,70,66,63,88,52,36,29.92,29.84,29.77,6,6,4,6,2,,0.00,3,,60
2012-11-8,95,84,73,72,68,64,89,58,36,29.89,29.80,29.71,6,6,5,6,2,,0.00,3,,191
2012-11-9,95,85,75,73,69,64,89,56,36,29.89,29.81,29.74,6,6,4,6,2,,0.00,4,,240
2012-11-10,96,86,75,73,68,63,89,54,34,29.92,29.83,29.74,6,6,5,6,2,,0.00,3,,190
2012-11-11,93,85,77,75,70,66,89,58,41,29.92,29.85,29.77,6,6,2,9,4,,0.00,3,,82
2012-11-12,91,82,73,66,64,63,78,52,38,29.98,29.92,29.86,6,6,6,9,4,,0.00,3,,62
2012-11-13,91,82,73,68,66,64,83,59,41,30.01,29.92,29.83,6,6,5,9,4,,0.00,3,,97
2012-11-14,89,80,71,70,65,63,88,56,40,29.95,29.87,29.80,6,6,5,7,2,,0.00,5,,77
2012-11-15,89,80,71,70,65,61,88,56,43,29.95,29.88,29.83,6,6,6,7,3,,0.00,5,,47
2012-11-16,91,80,69,79,64,59,88,54,36,29.95,29.89,29.83,6,6,5,6,2,,0.00,6,,26
2012-11-17,86,82,77,70,65,61,78,58,45,29.98,29.91,29.86,6,6,4,9,4,,0.00,6,,74
2012-11-18,89,80,71,64,61,59,78,52,36,29.98,29.91,29.83,6,5,4,12,4,,0.00,6,,44
2012-11-19,91,81,71,68,65,63,83,53,38,29.95,29.89,29.83,6,6,6,6,2,,0.00,2,,40
2012-11-20,93,83,73,70,67,63,88,56,38,29.98,29.88,29.80,6,5,2,6,2,,0.00,3,,328
2012-11-21,95,84,73,73,67,63,89,53,34,29.95,29.85,29.74,6,6,4,6,2,,0.00,1,,190
2012-11-22,96,86,75,72,68,64,83,54,34,29.89,29.80,29.71,6,6,4,6,3,,0.00,3,,259
2012-11-23,96,86,75,73,69,64,89,59,34,29.89,29.81,29.71,6,6,1,20,3,34,0.00,4,Rain-Thunderstorm,315
2012-11-24,86,82,77,73,72,70,89,75,58,29.98,29.88,29.80,6,6,3,9,4,,0.00,6,,130
2012-11-25,87,81,75,75,71,68,94,70,55,29.98,29.89,29.83,6,5,2,9,2,,0.00,6,,150
2012-11-26,93,83,73,73,70,66,94,63,43,29.98,29.86,29.65,6,6,5,5,2,,0.00,4,,74
2012-11-27,89,82,75,72,68,64,89,60,43,29.95,29.86,29.77,6,6,3,6,4,,0.00,2,,60
2012-11-28,91,81,71,73,68,66,100,65,46,29.92,29.85,29.77,6,5,1,18,3,,0.00,4,Rain-Thunderstorm,59
2012-11-29,86,80,73,73,71,68,94,74,55,29.95,29.87,29.80,6,6,6,6,2,,0.00,4,,27
2012-11-30,89,81,73,75,71,68,100,66,49,29.92,29.84,29.77,6,6,2,5,2,,0.00,4,,250